Location: Invercargill
(46.4000°S, 168.3500°E)
Time: 18:44:32
(UTC+13:00)

Cosmos 2322 - Pass Details

Date: 29 September 2021
Orbit: 840 x 855 km, 71.0° (Epoch: 17 October)

Event Time Altitude Azimuth Distance (km) Brightness Sun altitude
Rises 21:26:46 0° 199° (SSW) 3,435 7.5 -16.6°
Reaches altitude 10° 21:31:09 10° 168° (SSE) 2,496 6.3 -17.3°
Maximum altitude 21:33:12 12° 147° (SSE) 2,362 5.9 -17.6°
Drops below altitude 10° 21:35:16 10° 125° (SE) 2,492 5.9 -17.9°
Enters shadow 21:35:32 10° 123° (ESE) 2,528 5.9 -18.0°
